Guymon, OK

7:35 AM CST on January 17, 2017 (GMT -0600)
Guymon Municipal

Weather History for KGUY - July, 2012

Change the Weather History Date:

Tuesday, July 3, 2012

  Actual Average Record
Temperature  
Mean Temperature 84 °F 79 °F  
Max Temperature 97 °F 93 °F 103 °F (2011)
Min Temperature 70 °F 64 °F 58 °F (2014)
Degree Days  
Heating Degree Days 0 0  
Month to date heating degree days 0 0  
Since 1 June heating degree days 0 8  
Since 1 July heating degree days 0 0  
Cooling Degree Days 19 14  
Month to date cooling degree days 55 40  
Year to date cooling degree days 789 428  
Since 1 June cooling degree days 524 320  
Growing Degree Days 33 (Base 50)    
Moisture  
Dew Point 59 °F    
Average Humidity 49    
Maximum Humidity 73    
Minimum Humidity 25    
Precipitation  
Precipitation 0.00 in 0.08 in 0.57 in (2015)
Month to date precipitation 0.24 0.24  
Year to date precipitation 6.33 9.43  
Snow  
Snow 0.00 in - - ()
Month to date snowfall 0.0  
Since 1 June snowfall 0.0  
Since 1 July snowfall 0.0  
Snow Depth 0.00 in    
Sea Level Pressure  
Sea Level Pressure 29.76 in    
Wind  
Wind Speed 14 mph (South)    
Max Wind Speed 26 mph    
Max Gust Speed 32 mph    
Visibility 10 miles    
Events      
T = Trace of Precipitation, MM = Missing Value Source: NWS Daily Summary

Daily Weather History Graph

Daily Weather History Graph

Search for Another Location

Airport or City:

Trip Planner

Search our weather history database for the weather conditions in past years. The results will help you decide how hot, cold, wet, or windy it might be!

Date:

Astronomy

Jul. 03, 2012 Rise Set
Actual Time 6:32 AM CDT 9:08 PM CDT
Civil Twilight 6:01 AM CDT 9:38 PM CDT
Nautical Twilight 5:23 AM CDT 10:16 PM CDT
Astronomical Twilight 4:41 AM CDT 10:58 PM CDT
Moon 9:06 PM CDT (7/3) 6:26 AM CDT (7/3)
Length of Visible Light 15h 37m
Length of Day
14h 36m
Full, 100% of the Moon is Illuminated
Jul 3
Full
Jul 3
Full
Jul 10
Last Quarter
Jul 18
New
Jul 26
First Quarter

Hourly Weather History & Observations

Time (CDT) Temp. Heat Index Dew Point Humidity Pressure Visibility Wind Dir Wind Speed Gust Speed Precip Events Conditions
12:53 AM 79.0 °F - 59.0 °F 50% 29.79 in 10.0 mi South 12.7 mph - N/A   Clear
1:53 AM 78.1 °F - 59.0 °F 52% 29.79 in 10.0 mi South 12.7 mph - N/A   Clear
2:53 AM 75.9 °F - 59.0 °F 56% 29.80 in 10.0 mi South 9.2 mph - N/A   Clear
3:53 AM 75.0 °F - 59.0 °F 57% 29.80 in 10.0 mi South 11.5 mph - N/A   Clear
4:53 AM 73.9 °F - 60.1 °F 62% 29.81 in 10.0 mi South 10.4 mph - N/A   Clear
5:53 AM 72.0 °F - 60.1 °F 66% 29.81 in 10.0 mi South 9.2 mph - N/A   Partly Cloudy
6:53 AM 70.0 °F - 61.0 °F 73% 29.82 in 10.0 mi South 10.4 mph - N/A   Clear
8:53 AM 80.1 °F 81.1 °F 61.0 °F 52% 29.80 in 10.0 mi SSW 20.7 mph 27.6 mph N/A   Clear
9:53 AM 82.9 °F 83.3 °F 61.0 °F 47% 29.80 in 10.0 mi SSW 23.0 mph - N/A   Clear
10:53 AM 88.0 °F 87.9 °F 61.0 °F 40% 29.79 in 10.0 mi SSW 20.7 mph 28.8 mph N/A   Clear
11:53 AM 91.0 °F 90.9 °F 61.0 °F 36% 29.78 in 10.0 mi SSW 18.4 mph 26.5 mph N/A   Clear
12:53 PM 93.0 °F 92.3 °F 59.0 °F 32% 29.76 in 10.0 mi SSW 18.4 mph 26.5 mph N/A   Clear
1:53 PM 95.0 °F 93.7 °F 57.0 °F 28% 29.76 in 10.0 mi South 13.8 mph 23.0 mph N/A   Partly Cloudy
2:53 PM 96.1 °F 95.2 °F 57.9 °F 28% 29.74 in 10.0 mi South 15.0 mph 27.6 mph N/A   Clear
3:53 PM 96.1 °F 94.8 °F 57.0 °F 27% 29.72 in 10.0 mi South 18.4 mph 24.2 mph N/A   Partly Cloudy
4:53 PM 96.1 °F 94.1 °F 55.0 °F 25% 29.70 in 10.0 mi SSE 17.3 mph 25.3 mph N/A   Clear
5:53 PM 95.0 °F 93.4 °F 55.9 °F 27% 29.68 in 10.0 mi South 18.4 mph 26.5 mph N/A   Clear
6:53 PM 93.9 °F 92.2 °F 55.9 °F 28% 29.68 in 10.0 mi South 16.1 mph - N/A   Clear
7:53 PM 91.9 °F 90.6 °F 57.0 °F 31% 29.68 in 10.0 mi South 12.7 mph - N/A   Clear
8:53 PM 88.0 °F 86.7 °F 57.0 °F 35% 29.69 in 10.0 mi South 10.4 mph - N/A   Clear
9:53 PM 84.9 °F 84.8 °F 60.1 °F 43% 29.71 in 10.0 mi SSE 9.2 mph - N/A   Clear
10:53 PM 82.0 °F 82.4 °F 60.1 °F 47% 29.73 in 10.0 mi SSE 10.4 mph - N/A   Clear
11:53 PM 82.0 °F 82.4 °F 60.1 °F 47% 29.73 in 10.0 mi SSE 11.5 mph - N/A   Clear